Lid_Strength_Index
5 5 5 4 4 4 4 3 3 3 3 2 2 2 2 1 1 2 4 2 3 -0 -1 3 5 5 6 7 5 7 12 14 12 11 10 7 9 7 7 8 8 7 8 5 3
5 5 5 5 4 4 4 3 3 3 3 2 2 2 2 1 3 4 -0 -1 0 -0 3 5 6 6 9 8 7 10 13 12 8 8 10 9 8 8 9 9 9 7 6 4 3
5 5 5 5 4 4 4 3 3 3 3 2 2 2 1 2 4 4 -1 -1 -0 -0 2 4 4 7 9 9 9 8 11 9 8 8 9 10 10 8 9 10 8 8 7 5 5
6 5 5 5 5 4 4 3 3 3 2 2 2 2 1 3 11 2 -1 -1 -1 -0 4 5 6 9 10 10 9 12 9 9 9 8 10 11 10 11 9 9 7 7 7 6 5
6 6 5 5 5 4 4 3 3 2 2 2 2 2 3 6 6 1 -2 -0 1 3 5 6 8 8 10 10 10 11 10 9 9 9 10 10 11 11 11 9 8 7 7 8 6
6 6 6 5 5 4 4 3 2 2 2 2 2 2 5 10 4 3 3 2 3 5 6 6 7 7 10 10 11 11 11 11 10 10 10 11 11 12 11 9 9 8 8 8 8
6 6 6 5 5 4 4 3 2 1 1 1 1 3 5 7 5 4 4 5 5 5 6 6 5 7 8 10 8 9 13 12 11 11 12 11 13 13 10 11 10 9 9 7 7
6 6 6 5 5 5 4 3 2 1 2 1 1 4 8 5 6 5 4 5 4 4 5 4 5 6 7 7 9 12 12 15 11 10 11 12 16 12 11 12 11 10 10 9 8
6 6 6 5 5 5 4 3 2 1 1 1 4 6 10 3 6 6 5 6 5 4 4 3 5 8 8 11 13 12 16 15 13 10 11 13 15 11 10 11 11 11 11 10 9
6 6 6 6 5 4 3 3 2 2 1 1 2 8 6 9 6 6 5 4 6 6 6 7 8 12 12 13 17 15 15 13 14 11 12 14 15 12 11 11 12 11 11 10 9
6 6 6 5 5 4 5 7 8 9 8 9 8 8 6 5 5 6 5 5 6 7 11 9 12 14 12 12 11 12 13 14 12 10 12 13 15 14 11 11 12 12 12 12 10
6 6 6 5 5 5 7 10 10 9 11 7 6 6 5 4 8 7 5 8 9 12 10 12 14 10 9 10 11 12 14 14 12 10 11 12 12 11 10 10 10 11 11 12 12
6 6 5 6 5 8 10 10 7 7 11 9 6 6 6 5 7 8 6 8 10 12 12 13 11 9 10 11 12 13 14 14 14 12 11 13 15 13 11 10 10 11 11 11 11
6 5 6 6 9 10 12 9 7 7 16 13 9 8 7 6 9 6 6 8 10 11 11 12 9 10 12 12 11 15 11 12 12 15 18 13 21 14 11 11 10 10 11 11 11
5 5 6 6 11 12 11 8 7 8 27 12 10 6 7 9 9 9 6 8 11 11 12 13 11 12 12 11 10 12 11 12 13 15 17 16 20 15 11 12 11 11 10 10 10
5 6 7 10 11 11 9 8 7 20 27 16 10 11 11 9 9 9 9 8 9 11 12 12 10 11 11 11 11 10 12 12 13 15 25 17 17 16 14 12 11 10 10 10 10
6 6 9 9 14 10 9 10 20 25 16 20 15 13 13 13 11 11 12 14 15 19 17 14 13 12 10 13 11 12 15 25 24 24 23 15 17 15 12 11 11 12 11 10 10
6 6 9 10 10 10 10 18 26 25 23 14 14 14 15 14 13 13 14 16 14 14 17 18 19 13 11 12 13 13 15 22 24 25 20 15 19 15 11 11 11 11 11 10 11
6 11 11 11 10 10 14 25 23 19 16 15 15 19 18 14 15 15 16 16 16 14 18 19 17 12 11 11 11 14 16 12 21 23 23 17 15 11 10 13 13 13 11 11 11
12 13 12 10 10 11 19 19 20 13 14 14 19 19 25 21 17 16 16 15 15 14 13 15 20 14 12 12 11 13 11 18 20 26 27 19 16 16 14 14 14 14 13 11 11
12 15 11 9 10 15 22 23 15 13 13 15 18 21 18 22 17 18 17 15 14 15 14 15 16 16 14 14 15 16 18 16 15 17 23 24 19 13 15 15 16 15 13 12 12
14 20 10 10 18 21 23 15 13 15 14 14 15 15 18 19 21 18 18 15 13 14 18 15 17 22 17 13 13 13 14 14 18 21 19 20 19 12 14 14 15 14 12 12 12
17 16 10 10 21 23 19 16 15 15 15 15 16 15 15 20 24 18 17 13 13 14 17 15 21 28 22 17 15 16 15 13 16 17 21 23 19 11 13 15 14 14 12 13 12
15 18 15 13 14 16 21 18 17 14 15 15 15 15 16 19 16 20 16 14 13 14 12 13 19 23 24 19 18 18 17 16 20 27 26 21 22 16 15 15 14 13 12 13 14
15 19 17 21 18 16 15 16 16 19 15 14 15 15 17 22 20 22 18 16 14 12 13 15 23 21 20 18 17 17 18 17 20 24 23 19 22 18 18 16 15 13 13 13 13
16 17 16 19 14 15 15 18 16 16 16 16 18 15 16 20 19 23 19 18 16 16 16 15 22 18 24 17 17 18 17 17 17 18 18 17 19 14 13 13 14 14 14 13 15
10 11 12 13 15 17 17 16 15 14 14 13 15 16 15 15 15 14 13 13 14 17 18 19 21 26 24 18 19 25 19 17 17 19 19 21 17 14 16 15 18 15 14 15 15